Regional Weather Roundup
Issued by NWS

Home | Current Version | Previous Version | Text Only | Print | Product List | Glossary Off
Versions: 1 2 3 4 5 6 7 8 9 10 11 12 13 14 15 16 17 18 19 20 21 22 23 24 25 26 27

000
ASUS45 KCYS 091810
RWRWY

WYOMING REGIONAL WEATHER ROUNDUP
NATIONAL WEATHER SERVICE CHEYENNE WY
1100 AM MST FRI DEC 09 2016

NOTE:  "FAIR" INDICATES FEW OR NO CLOUDS BELOW 12,000 FEET
WITH NO SIGNIFICANT WEATHER AND/OR OBSTRUCTIONS TO VISIBILITY.

WYZ001-091900-
YELLOWSTONE NATIONAL PARK

CITY           SKY/WX    TMP DP  RH WIND       PRES   REMARKS
LK YELLOWSTONE   N/A     22  19  89 VRB6      30.05F WCI  14
6HR MIN TEMP:  10; 6HR MAX TEMP:  22; 6HR PCP:  0.02;

W YELLOWSTONE  NOT AVBL

$$
WYZ002>013-054>058-071-098>099-091900-
NORTHERN WYOMING

CITY           SKY/WX    TMP DP  RH WIND       PRES   REMARKS
JACKSON        LGT SNOW  19  18  93 CALM      30.10R
CODY           FAIR       6  -2  69 S3        30.14F
GREYBULL       FAIR      12   0  58 CALM      30.23F
6HR MIN TEMP:   6; 6HR MAX TEMP:  12;

WORLAND        FAIR       8   2  76 CALM      30.21F
6HR MIN TEMP:  -2; 6HR MAX TEMP:   8;

SHERIDAN       FAIR      10   0  63 CALM      30.24F
6HR MIN TEMP:   3; 6HR MAX TEMP:  10;

BUFFALO        FAIR       8   1  73 CALM      30.16F
6HR MIN TEMP:   0; 6HR MAX TEMP:   8;

GILLETTE       CLOUDY     3  -2  79 N3        30.21F
6HR MIN TEMP: -10; 6HR MAX TEMP:   3;

HULETT         FAIR       1  -4  78 CALM      30.23S
NEWCASTLE      FAIR      10   1  67 NW3       30.22F

$$
WYZ014>020-022>026-101>103-091900-
CENTRAL WYOMING

CITY           SKY/WX    TMP DP  RH WIND       PRES   REMARKS
BIG PINEY      FLURRIES  10   8  92 CALM      30.17R
6HR MIN TEMP:   5; 6HR MAX TEMP:  10; 6HR PCP: TRACE;

PINEDALE       LGT SNOW  16  12  86 MISG      30.16S
DUBOIS         CLOUDY    32  21  64 NW10G20   30.00S WCI  24
LANDER         FAIR      13   2  61 VRB3      30.09R
6HR MIN TEMP:  -1; 6HR MAX TEMP:  13;

RIVERTON       FAIR      13   5  70 CALM      30.11R
6HR MIN TEMP:   0; 6HR MAX TEMP:  13;

CASPER         FAIR       5  -2  72 NW3       30.12F
6HR MIN TEMP: -11; 6HR MAX TEMP:   6;

DOUGLAS        FAIR       5  -2  72 NW3       30.17R
6HR MIN TEMP:  -3; 6HR MAX TEMP:   5;


$$
WYZ021-027>030-104>119-091900-
SOUTHERN WYOMING

CITY           SKY/WX    TMP DP  RH WIND       PRES   REMARKS
EVANSTON       LGT SNOW  33  30  88 SW15      30.19S FOG     WCI  23
6HR MIN TEMP:  31; 6HR MAX TEMP:  33; 6HR PCP: TRACE;

KEMMERER       LGT SNOW  34  30  86 W9        30.17S WCI  26
FORT BRIDGER   MOCLDY    37  35  90 W23       30.20S WCI  26
ROCK SPRINGS   FAIR      33  28  81 W26       30.14S WCI  20
6HR MIN TEMP:  13; 6HR MAX TEMP:  33; 6HR PCP: TRACE;

DIXON          CLOUDY    36  23  59 SW14      30.24S WCI  27
RAWLINS        CLOUDY    32  22  66 W21G32    30.11R WCI  20
6HR MIN TEMP:  27; 6HR MAX TEMP:  33;

SARATOGA       MOCLDY    34  25  69 SW16G22   30.15S WCI  23
LARAMIE        PTSUNNY   34  22  61 W22       30.09S WCI  22
6HR MIN TEMP:  27; 6HR MAX TEMP:  34;

CHEYENNE       FAIR      42  25  50 W15G25    30.05F
6HR MIN TEMP:  12; 6HR MAX TEMP:  42;

TORRINGTON     FAIR      20   7  57 VRB3      30.16F
6HR MIN TEMP:   9; 6HR MAX TEMP:  20;

PINE BLUFFS    FAIR      28  16  59 S5        30.11S WCI  23

$$




USA.gov is the U.S. government's official web portal to all federal, state and local government web resources and services.